Powrót do katalogu

CZ-6A DEB

AktywnyPO
NORAD 61366·DEBRIS·🇨🇳 China

Wystrzelony Aug 6, 2024 z Taiyuan Satellite Launch Center

Loading…

Następne Przeloty (najbliższe 24 godziny)

TLE

ŚwieżeSource: Space-Track

Epoka: Sep 14, 2026, 09:20 UTC

1 61366U 24140WF  26257.38911169  .00002326  00000-0  12021-2 0  9994
2 61366  88.8472 252.7700 0101302 303.7386  55.4177 14.12125506104248

Śledź CZ-6A DEB w czasie rzeczywistym z AllMySat

Download on the App Store